Flag for Switzerland Weather past 2 weeks in Bern, Bern, Switzerland

Now
82 °F

Passing clouds.


Feels Like: 85 °F
Forecast: 59 / 84 °F
Wind: 6 mph from West

Location: Bern / Belp

Current Time: Aug 30, 2015 at 12:53:35 PM

Latest Report: Aug 30, 2015 at 12:20 PM


Visibility: N/A

Pressure: 30.15 "Hg (28.38 "Hg at 533m altitude)

Humidity: 58%

Dew point: 66 °F

Location of BernLocation

Historic Weather in Bern — Graph

°F

Bern temperature yesterday

Maximum temperature yesterday: 90 °F (at 6:20 PM)
Minimum temperature yesterday: 55 °F (at 6:20 AM)
Average temperature yesterday: 72 °F

Past Weeks' High & Low Weather Summary

 TemperatureHumidityPressure
High90 °F (Aug 29, 6:20 PM)100% (Aug 15, 9:20 PM)30.27 "Hg (Aug 15, 9:20 PM)
Low48 °F (Aug 20, 3:20 AM)38% (Aug 29, 5:20 PM)29.74 "Hg (Aug 24, 4:20 AM)
Average63 °F82%30.04 "Hg
* Reported Aug 15 11:20 AM — Aug 30 11:20 AM, Bern, Weather by CustomWeather, © 2015

Note: Actual official high and low records may vary slightly from our data, if they occured in-between our weather recording intervals... More about our weather records

Advertising

Bern weather history for previous 24 hours

 ConditionsComfort  
Time TempWeatherWind HumidityBarometerVisibility
11:20 AM
Sun, Aug 30
79 °FSunny.3 mph61%30.18 "Hg10 mi
10:50 AM79 °FSunny.1 mph70%30.18 "Hg10 mi
10:20 AM77 °FSunny.2 mph74%30.18 "Hg10 mi
9:50 AM75 °FSunny.2 mph78%30.18 "Hg10 mi
9:20 AM70 °FPassing clouds.1 mph88%30.18 "HgN/A
8:50 AM66 °FScattered clouds.1 mph100%30.18 "HgN/A
8:20 AM64 °FScattered clouds.1 mph100%30.18 "HgN/A
7:50 AM64 °FScattered clouds.1 mph100%30.18 "HgN/A
7:20 AM63 °FPassing clouds.1 mph100%30.18 "HgN/A
6:50 AM63 °FPassing clouds.1 mph100%30.18 "HgN/A
6:20 AM63 °FPassing clouds.3 mph100%30.18 "HgN/A
5:50 AM63 °FPassing clouds.1 mph100%30.18 "HgN/A
5:20 AM63 °FMild.1 mph100%30.18 "HgN/A
4:50 AM63 °FPassing clouds.2 mph100%30.18 "HgN/A
4:20 AM63 °FPassing clouds.No wind100%30.18 "HgN/A
3:50 AM63 °FPassing clouds.1 mph100%30.18 "HgN/A
3:20 AM64 °FPassing clouds.1 mph100%30.18 "HgN/A
2:50 AM64 °FMild.1 mph100%30.15 "HgN/A
2:20 AM66 °FClear.2 mph94%30.15 "Hg10 mi
1:50 AM64 °FClear.5 mph100%30.18 "Hg10 mi
1:20 AM64 °FClear.1 mph100%30.18 "Hg10 mi
12:50 AM66 °FClear.1 mph94%30.18 "Hg10 mi
12:20 AM66 °FClear.1 mph100%30.18 "Hg10 mi
11:20 PM
Sat, Aug 29
68 °FClear.1 mph94%30.15 "Hg10 mi
10:50 PM68 °FClear.3 mph94%30.15 "HgN/A
10:20 PM68 °FPassing clouds.3 mph94%30.15 "HgN/A
9:50 PM70 °FClear.1 mph94%30.15 "Hg10 mi
9:20 PM72 °FClear.1 mph88%30.12 "Hg10 mi
8:50 PM75 °FSunny.1 mph74%30.12 "Hg10 mi
8:20 PM79 °FSunny.1 mph65%30.12 "Hg10 mi
7:50 PM82 °FSunny.6 mph58%30.09 "Hg10 mi
7:20 PM84 °FSunny.6 mph51%30.09 "Hg10 mi
6:50 PM88 °FPassing clouds.3 mph46%30.09 "HgN/A
6:20 PM90 °FSunny.3 mph41%30.09 "Hg10 mi
5:50 PM88 °FSunny.1 mph40%30.12 "Hg10 mi
5:20 PM88 °FSunny.1 mph38%30.12 "Hg10 mi
4:50 PM88 °FSunny.6 mph40%30.12 "Hg10 mi
4:20 PM88 °FSunny.5 mph46%30.12 "Hg10 mi
3:50 PM88 °FSunny.3 mph49%30.15 "Hg10 mi
3:20 PM86 °FPassing clouds.6 mph46%30.15 "HgN/A
2:50 PM86 °FPassing clouds.7 mph49%30.15 "HgN/A
2:20 PM84 °FPassing clouds.6 mph48%30.18 "HgN/A
1:50 PM82 °FPassing clouds.3 mph51%30.18 "HgN/A
1:20 PM82 °FSunny.3 mph51%30.18 "Hg10 mi
12:50 PM81 °FSunny.3 mph54%30.21 "Hg10 mi
Weather by CustomWeather, © 2015

See weather overviewHow to use our weather pages